Weather History for KCLS - June, 2013

Change the Weather History Date:

Wednesday, June 19, 2013

  Actual Average (KOLM) Record (KOLM)
Temperature  
Mean Temperature 59 °F 60 °F  
Max Temperature 68 °F 71 °F 94 °F (1982)
Min Temperature 50 °F 48 °F 35 °F (1955)
Degree Days  
Heating Degree Days 6 6  
Month to date heating degree days 132  
Since 1 June heating degree days 132  
Since 1 July heating degree days 5328  
Cooling Degree Days 0 0  
Month to date cooling degree days 0  
Year to date cooling degree days 3  
Since 1 June cooling degree days 0  
Growing Degree Days 9 (Base 50)    
Moisture  
Dew Point 50 °F    
Average Humidity 75    
Maximum Humidity 100    
Minimum Humidity 49    
Precipitation  
Precipitation 0.00 in 0.05 in 0.66 in (2010)
Month to date precipitation 1.26  
Year to date precipitation 25.53  
Sea Level Pressure  
Sea Level Pressure 30.00 in    
Wind  
Wind Speed 3 mph (WSW)    
Max Wind Speed 13 mph    
Max Gust Speed 20 mph    
Visibility 9 miles    
Events Rain    
T = Trace of Precipitation, MM = Missing Value Source: NWS Daily Summary

Daily Weather History Graph

Daily Weather History Graph

Search for Another Location

Airport or City:

Trip Planner

Search our weather history database for the weather conditions in past years. The results will help you decide how hot, cold, wet, or windy it might be!

Date:

Astronomy

Jun. 19, 2013 Rise Set
Actual Time 5:17 AM PDT 9:08 PM PDT
Civil Twilight 4:38 AM PDT 9:48 PM PDT
Nautical Twilight 3:44 AM PDT 10:42 PM PDT
Astronomical Twilight 2:25 AM PDT 12:01 AM PDT
Moon 4:58 PM PDT (6/19) 2:18 AM PDT (6/19)
Length of Visible Light 17h 09m
Length of Day
15h 50m
Waxing Gibbous, 81% of the Moon is Illuminated
Jun 19
Waxing Gibbous
Jun 23
Full
Jun 29
Last Quarter
Jul 8
New
Jul 15
First Quarter

Hourly Weather History & Observations

Time (PDT) Temp. Dew Point Humidity Pressure Visibility Wind Dir Wind Speed Gust Speed Precip Events Conditions
12:15 AM 51.8 °F 50.0 °F 94% 29.99 in 7.0 mi Calm Calm - N/A   Overcast
12:35 AM 53.6 °F 50.0 °F 88% 29.99 in 7.0 mi Calm Calm - N/A   Overcast
12:55 AM 51.8 °F 50.0 °F 94% 29.99 in 7.0 mi Calm Calm - N/A   Mostly Cloudy
1:15 AM 50.0 °F 50.0 °F 100% 29.98 in 8.0 mi WSW 3.5 mph - N/A   Mostly Cloudy
1:35 AM 50.0 °F 50.0 °F 100% 29.98 in 9.0 mi Calm Calm - N/A   Overcast
1:55 AM 51.8 °F 50.0 °F 94% 29.97 in 10.0 mi SW 3.5 mph - N/A   Overcast
2:15 AM 50.0 °F 50.0 °F 100% 29.97 in 10.0 mi SSW 3.5 mph - N/A   Overcast
2:35 AM 50.0 °F 50.0 °F 100% 29.97 in 10.0 mi Calm Calm - N/A   Overcast
2:55 AM 50.0 °F 50.0 °F 100% 29.97 in 7.0 mi Calm Calm - N/A   Overcast
3:15 AM 50.0 °F 50.0 °F 100% 29.98 in 10.0 mi Calm Calm - N/A   Overcast
3:35 AM 50.0 °F 50.0 °F 100% 29.97 in 10.0 mi SSW 3.5 mph - N/A   Overcast
3:55 AM 50.0 °F 50.0 °F 100% 29.97 in 7.0 mi SW 3.5 mph - N/A   Overcast
4:15 AM 50.0 °F 50.0 °F 100% 29.97 in 8.0 mi SW 3.5 mph - N/A   Overcast
4:35 AM 50.0 °F 50.0 °F 100% 29.97 in 9.0 mi South 5.8 mph - N/A   Overcast
4:55 AM 50.0 °F 50.0 °F 100% 29.97 in 9.0 mi South 4.6 mph - N/A   Overcast
5:15 AM 50.0 °F 50.0 °F 100% 29.97 in 10.0 mi SSW 4.6 mph - N/A   Overcast
5:35 AM 50.0 °F 50.0 °F 100% 29.97 in 10.0 mi Calm Calm - N/A   Overcast
5:55 AM 50.0 °F 48.2 °F 94% 29.97 in 10.0 mi Calm Calm - N/A   Overcast
6:15 AM 50.0 °F 50.0 °F 100% 29.97 in 10.0 mi SW 3.5 mph - N/A   Overcast
6:35 AM 51.8 °F 50.0 °F 94% 29.98 in 8.0 mi SSW 3.5 mph - N/A   Mostly Cloudy
6:55 AM 53.6 °F 50.0 °F 88% 29.98 in 10.0 mi SW 3.5 mph - N/A   Partly Cloudy
7:15 AM 53.6 °F 50.0 °F 88% 29.98 in 10.0 mi SW 4.6 mph - N/A   Mostly Cloudy
7:35 AM 55.4 °F 50.0 °F 82% 29.98 in 8.0 mi SSW 3.5 mph - N/A   Mostly Cloudy
7:55 AM 57.2 °F 50.0 °F 77% 29.99 in 10.0 mi SSW 4.6 mph - N/A   Mostly Cloudy
8:15 AM 57.2 °F 50.0 °F 77% 29.99 in 8.0 mi SSW 5.8 mph - N/A   Overcast
8:35 AM 57.2 °F 50.0 °F 77% 29.99 in 10.0 mi Calm Calm - N/A   Overcast
8:55 AM 59.0 °F 50.0 °F 72% 29.99 in 10.0 mi SSW 4.6 mph - N/A   Overcast
9:15 AM 59.0 °F 50.0 °F 72% 29.99 in 10.0 mi SSW 4.6 mph - N/A   Mostly Cloudy
9:35 AM 59.0 °F 50.0 °F 72% 29.99 in 10.0 mi SSW 4.6 mph - N/A   Clear
9:55 AM 62.6 °F 50.0 °F 63% 29.99 in 8.0 mi SW 6.9 mph - N/A   Scattered Clouds
10:15 AM 62.6 °F 50.0 °F 63% 29.98 in 10.0 mi WSW 8.1 mph - N/A   Mostly Cloudy
10:35 AM 60.8 °F 50.0 °F 68% 29.98 in 7.0 mi West 5.8 mph - N/A   Mostly Cloudy
10:55 AM 62.6 °F 48.2 °F 59% 29.98 in 10.0 mi SW 6.9 mph - N/A   Mostly Cloudy
11:15 AM 66.2 °F 50.0 °F 56% 29.98 in 10.0 mi SSW 8.1 mph - N/A   Mostly Cloudy
11:35 AM 64.4 °F 48.2 °F 56% 29.98 in 5.0 mi SW 8.1 mph - N/A   Haze
11:55 AM 66.2 °F 48.2 °F 52% 29.98 in 5.0 mi WSW 5.8 mph - N/A   Haze
12:15 PM 64.4 °F 48.2 °F 56% 29.98 in 8.0 mi WSW 4.6 mph - N/A   Mostly Cloudy
12:35 PM 62.6 °F 48.2 °F 59% 29.98 in 5.0 mi West 3.5 mph - N/A Rain Light Rain
12:55 PM 64.4 °F 48.2 °F 56% 29.98 in 9.0 mi West 4.6 mph - N/A   Mostly Cloudy
1:15 PM 66.2 °F 46.4 °F 49% 29.98 in 8.0 mi WSW 8.1 mph - N/A   Scattered Clouds
1:35 PM 66.2 °F 50.0 °F 56% 29.99 in 7.0 mi West 9.2 mph 18.4 mph N/A   Mostly Cloudy
1:55 PM 64.4 °F 50.0 °F 59% 30.00 in 8.0 mi West 4.6 mph - N/A   Overcast
2:15 PM 66.2 °F 50.0 °F 56% 30.00 in 8.0 mi West 10.4 mph 16.1 mph N/A   Mostly Cloudy
2:35 PM 66.2 °F 50.0 °F 56% 30.01 in 10.0 mi West 8.1 mph - N/A   Mostly Cloudy
2:55 PM 64.4 °F 50.0 °F 59% 30.01 in 5.0 mi WSW 5.8 mph - N/A   Haze
3:15 PM 62.6 °F 51.8 °F 68% 30.01 in 5.0 mi WSW 6.9 mph - N/A   Haze
3:35 PM 62.6 °F 48.2 °F 59% 30.01 in 10.0 mi WSW 9.2 mph 16.1 mph N/A   Mostly Cloudy
3:55 PM 64.4 °F 46.4 °F 52% 30.01 in 10.0 mi West 10.4 mph 16.1 mph N/A   Overcast
4:15 PM 66.2 °F 48.2 °F 52% 30.01 in 10.0 mi SW 12.7 mph 19.6 mph N/A   Overcast
4:35 PM 66.2 °F 48.2 °F 52% 30.01 in 7.0 mi West 8.1 mph 18.4 mph N/A   Overcast
4:55 PM 66.2 °F 50.0 °F 56% 30.01 in 8.0 mi WSW 6.9 mph 16.1 mph N/A   Mostly Cloudy
5:15 PM 66.2 °F 50.0 °F 56% 30.01 in 10.0 mi WSW 10.4 mph - N/A   Mostly Cloudy
5:35 PM 68.0 °F 50.0 °F 52% 30.02 in 10.0 mi West 5.8 mph - N/A   Mostly Cloudy
5:55 PM 66.2 °F 50.0 °F 56% 30.03 in 10.0 mi WSW 6.9 mph - N/A   Mostly Cloudy
6:15 PM 64.4 °F 50.0 °F 59% 30.03 in 10.0 mi SW 8.1 mph - N/A   Overcast
6:35 PM 60.8 °F 51.8 °F 72% 30.03 in 7.0 mi WSW 5.8 mph - N/A Rain Light Rain
6:55 PM 62.6 °F 50.0 °F 63% 30.03 in 10.0 mi WSW 4.6 mph - N/A   Partly Cloudy
7:15 PM 64.4 °F 50.0 °F 59% 30.04 in 10.0 mi West 6.9 mph - N/A   Mostly Cloudy
7:35 PM 62.6 °F 50.0 °F 63% 30.04 in 8.0 mi West 5.8 mph - N/A   Mostly Cloudy
7:55 PM 60.8 °F 50.0 °F 68% 30.05 in 10.0 mi WSW 4.6 mph - N/A   Partly Cloudy
8:15 PM 60.8 °F 50.0 °F 68% 30.05 in 10.0 mi WSW 4.6 mph - N/A   Partly Cloudy
8:35 PM 59.0 °F 50.0 °F 72% 30.05 in 10.0 mi Calm Calm - N/A   Scattered Clouds
8:55 PM 59.0 °F 50.0 °F 72% 30.06 in 10.0 mi Calm Calm - N/A   Overcast
9:15 PM 59.0 °F 50.0 °F 72% 30.07 in 10.0 mi Calm Calm - N/A   Overcast
9:35 PM 57.2 °F 50.0 °F 77% 30.07 in 10.0 mi Calm Calm - N/A   Mostly Cloudy
9:55 PM 57.2 °F 50.0 °F 77% 30.07 in 10.0 mi Calm Calm - N/A   Mostly Cloudy
10:15 PM 55.4 °F 50.0 °F 82% 30.07 in 10.0 mi Calm Calm - N/A   Mostly Cloudy
10:35 PM 55.4 °F 50.0 °F 82% 30.07 in 10.0 mi Calm Calm - N/A   Overcast
10:55 PM 55.4 °F 50.0 °F 82% 30.07 in 10.0 mi Calm Calm - N/A   Mostly Cloudy
11:15 PM 53.6 °F 50.0 °F 88% 30.06 in 10.0 mi Calm Calm - N/A   Partly Cloudy
11:35 PM 53.6 °F 50.0 °F 88% 30.06 in 10.0 mi Calm Calm - N/A   Clear
11:55 PM 53.6 °F 50.0 °F 88% 30.07 in 10.0 mi Calm Calm - N/A   Clear